Location: Holkham
(52.9500°N, 0.8167°E)
Time: 20:34:03
(UTC+00:00)

COSMOS 2406 - Pass Details

Date: 19 May 2025
Orbit: 845 x 859 km, 71.0° (Epoch: 20 June)

Event Time Altitude Azimuth Distance (km) Brightness Sun altitude
Exits shadow 21:59:08 18° 151° (SSE) 1,949 4.4 -13.0°
Maximum altitude 22:02:12 30° 105° (ESE) 1,499 4.2 -13.2°
Drops below altitude 10° 22:07:02 10° 47° (NE) 2,490 5.9 -13.5°
Sets 22:09:46 0° 37° (NE) 3,433 6.8 -13.7°
